Lid_Strength_Index
7 7 7 7 7 7 7 7 9 7 8 6 6 6 5 5 4 4 4 3 3 3 2 2 2 2 1 1 1 1 1 1 1 0 0 0 0 0 0 -0 -0 -0 -0 -0
8 7 7 8 7 7 7 7 7 7 7 5 5 4 5 5 5 5 4 3 3 2 2 2 2 2 2 1 1 1 1 1 1 1 1 1 1 1 1 1 0 0 0 -0
9 8 8 9 7 7 6 6 6 8 6 5 6 6 6 5 5 5 4 4 3 2 2 2 2 2 2 1 1 1 1 1 1 1 1 1 1 1 1 1 1 1 1 0
10 9 12 8 6 7 7 7 6 6 6 6 6 5 4 4 4 4 4 4 3 3 2 1 1 1 1 1 1 1 1 1 1 1 1 1 1 1 1 1 1 1 1 0
11 10 8 8 7 8 8 7 5 6 6 6 5 5 5 3 3 3 3 3 2 2 2 1 1 1 1 2 2 2 2 2 2 2 5 7 6 6 1 1 1 1 0 1
9 11 12 7 6 5 5 9 6 6 6 6 5 8 6 3 3 3 2 2 2 2 1 2 2 1 2 2 2 2 2 2 5 5 4 5 3 3 1 1 1 2 2 1
9 10 8 6 6 5 11 9 6 5 5 5 6 5 4 3 3 2 2 2 2 2 2 2 1 1 2 2 3 2 5 5 4 4 3 2 2 2 1 1 2 2 4 4
9 11 12 6 6 9 7 5 5 5 5 5 4 4 3 3 3 3 2 2 2 2 2 2 1 2 3 3 2 5 3 2 2 1 1 1 1 2 2 3 3 4 4 4
9 9 6 5 5 4 4 5 4 4 4 4 4 4 3 3 3 3 3 2 2 2 3 2 2 2 3 2 3 2 1 4 2 1 1 1 2 2 3 3 3 3 4 4
8 6 5 5 4 3 3 4 3 3 3 3 4 3 3 3 3 3 3 3 2 2 3 3 2 2 2 2 1 2 2 1 1 1 2 1 1 1 2 3 2 2 3 4
7 6 5 4 4 4 3 3 3 3 3 3 3 3 3 3 2 2 2 2 2 2 2 2 2 2 1 1 1 2 2 1 2 2 2 2 1 1 1 1 1 1 1 1
9 5 5 5 3 3 3 3 3 3 3 3 3 3 2 2 2 2 2 2 3 3 3 2 2 2 1 1 1 1 2 2 2 2 2 2 2 3 11 8 9 7 6 4
5 3 3 3 3 2 3 3 2 2 2 3 2 2 2 2 2 3 2 2 2 2 2 2 2 2 1 1 1 1 2 2 2 2 2 2 2 2 4 8 11 10 9 7
3 3 4 3 4 2 2 2 2 2 2 2 2 2 2 2 2 2 2 2 2 2 2 2 2 2 1 0 1 1 1 5 2 2 2 2 3 2 2 2 3 4 9 8
3 3 3 3 2 3 2 2 3 3 2 2 2 2 2 2 2 2 2 2 2 2 2 2 2 2 1 1 1 2 2 2 2 1 2 3 2 1 1 2 3 5 7 8
4 4 4 4 4 3 3 3 3 3 2 2 2 2 2 2 2 2 2 2 3 3 2 2 2 2 1 1 1 2 3 3 2 2 2 2 1 1 1 2 4 6 6 5
5 6 5 5 4 3 3 3 2 2 2 2 2 2 2 2 2 2 2 2 2 2 1 1 1 1 1 1 1 2 2 2 2 1 2 2 1 1 1 2 4 6 6 4
3 3 3 4 4 4 3 3 2 2 2 2 2 2 2 3 3 3 2 2 2 2 1 1 1 1 1 1 1 1 3 3 3 2 2 1 1 1 2 4 7 5 4 3
3 3 3 3 3 3 3 3 2 2 2 2 2 3 2 2 2 2 2 2 2 3 2 0 2 1 1 1 1 1 2 3 4 2 1 3 1 1 3 6 5 4 3 3
3 3 3 3 3 3 3 2 2 2 2 2 2 2 3 3 2 2 2 3 2 2 0 1 1 1 1 1 1 1 2 2 2 2 2 1 2 4 4 5 4 3 3 3
3 3 3 3 3 3 2 2 2 3 2 2 2 3 3 2 2 2 3 3 2 1 1 2 1 1 3 2 2 1 2 2 3 4 4 3 3 4 4 4 3 3 3 3
3 3 3 3 3 3 2 2 2 2 2 2 2 2 2 3 2 2 1 2 1 5 1 0 0 2 2 4 3 3 3 2 3 4 5 4 4 4 4 4 4 4 3 2
2 2 2 3 3 3 2 2 2 2 2 2 2 2 3 2 2 3 3 1 1 2 0 0 4 4 4 2 5 6 5 4 5 5 5 6 5 5 6 5 4 3 2 1
2 2 2 2 2 3 3 2 2 2 2 2 2 2 2 3 2 1 1 4 6 3 0 2 3 4 4 2 4 5 6 6 6 6 6 8 5 5 5 4 3 2 1 1
2 2 2 2 3 3 2 2 2 2 2 3 2 2 1 1 1 1 1 1 6 3 1 6 5 4 0 0 2 4 5 5 6 6 6 6 5 5 3 3 2 1 1 -0
2 3 2 2 2 2 2 2 3 2 2 3 3 2 2 1 1 1 1 2 1 3 1 3 2 0 0 0 1 2 3 5 5 6 6 5 5 4 3 2 0 -0 -0 -1
2 5 2 3 2 2 2 2 3 3 2 2 3 2 2 1 1 2 3 1 1 1 2 2 1 1 0 0 0 0 0 1 3 4 5 4 3 1 -0 -0 -1 -1 -1 -1